Location: Che?m Ma?y
(50.1000°N, 19.2167°E)
Time: 06:23:47
(UTC+00:00)

Daily predictions for brighter satellites

Satellite Brightness Start Highest point End
(mag) Time Altitude Azimuth Time Altitude Azimuth Time Altitude Azimuth
ARGOS Delta rocket 4.3 17:53:27 10° SSE 17:58:49 86° WSW 18:04:21 10° NNW
STARLINK-1221 3.0 17:56:40 10° WNW 17:59:49 71° NNE 18:02:58 10° ESE
STARLINK-1219 3.0 17:57:07 10° WNW 18:00:15 71° NNE 18:03:25 10° ESE
CZ-2C R/B 3.8 17:56:48 10° NE 18:00:39 21° E 18:04:30 10° SE
STARLINK-1222 3.0 17:57:34 10° WNW 18:00:43 71° NNE 18:03:52 10° ESE
STARLINK-1211 3.0 17:58:02 10° WNW 18:01:11 71° NNE 18:04:20 10° ESE
STARLINK-1214 3.0 17:58:28 10° WNW 18:01:37 72° NNE 18:04:45 10° ESE
STARLINK-1245 3.0 17:58:58 10° WNW 18:02:06 72° NNE 18:05:12 10° ESE
Abrixas rocket 2.2 17:59:17 10° W 18:02:12 57° S 18:05:07 10° ESE
STARLINK-1238 3.0 17:59:22 10° WNW 18:02:32 72° NNE 18:05:41 10° ESE
CZ-4 R/B 4.2 18:00:04 10° SW 18:03:03 21° W 18:06:03 10° NW
Cosmos 1470 4.4 17:59:32 10° SW 18:03:13 40° WNW 18:06:58 10° N
STARLINK-1236 4.0 17:59:07 10° WNW 18:03:14 60° N 18:07:21 10° E
STARLINK-1205 3.0 18:00:19 10° WNW 18:03:27 73° NNE 18:06:35 10° ESE
STARLINK-1204 2.9 18:00:46 10° WNW 18:03:54 73° NNE 18:07:01 10° ESE
Meteor 1-11 4.4 18:01:31 10° N 18:07:12 56° ENE 18:12:47 10° SSE
Cosmos 407 Rocket 3.9 18:03:02 10° S 18:07:48 40° ESE 18:12:34 10° NE
Cosmos 1953 2.6 18:04:30 10° SSW 18:08:27 72° W 18:12:28 10° N
STARLINK-60 3.6 18:05:33 10° SW 18:08:36 37° SSE 18:11:40 10° ENE
ARGOS 3.2 18:03:14 10° SSE 18:08:37 76° ENE 18:14:01 10° NNW
ADEOS Rocket 3.9 18:04:48 10° N 18:11:04 55° WNW 18:16:44 10° SW
STARLINK-1269 3.9 18:09:06 10° WNW 18:13:13 63° N 18:17:21 10° E
IRIDIUM 106 4.5 18:09:23 10° N 18:14:37 81° W 18:19:50 10° S
SL-16 R/B 4.4 18:11:39 10° WSW 18:16:32 29° NW 18:21:26 10° NNE
STARLINK-1200 3.9 18:14:04 10° WNW 18:18:12 64° NNE 18:22:09 11° E
SPOT 3 Rocket 3.7 18:14:44 10° SSE 18:19:50 59° ENE 18:24:58 10° N
CZ-2C R/B 4.2 18:15:49 10° NNE 18:20:17 40° E 18:24:38 10° SSE
COSMOS 2455 3.0 18:14:32 10° NNW 18:20:34 65° NE 18:26:22 11° SE
STARLINK-1192 3.9 18:19:05 10° WNW 18:23:13 66° NNE 18:26:57 12° E
Resurs 1-3 3.9 18:21:15 10° SE 18:25:29 50° ENE 18:29:45 10° N
MONITOR-E 4.4 18:23:33 10° S 18:26:08 57° W 18:28:46 10° NNW
STARLINK-1244 3.8 18:24:04 10° WNW 18:28:12 68° NNE 18:31:44 14° E
NOSS 3-4 (A) 4.1 18:22:38 10° NW 18:29:33 73° SW 18:37:10 10° SSE
NOSS 3-4 (C) 4.1 18:22:44 10° NW 18:29:39 73° SW 18:37:17 10° SSE
Cosmos 1980 Rocket 4.3 18:27:46 10° N 18:30:49 15° NNE 18:33:52 10° ENE
SL-08 RB Rocket 3.7 18:26:49 10° SSE 18:31:23 88° E 18:36:03 10° NNW
STARLINK-1201 2.9 18:28:07 10° WNW 18:31:24 85° SSW 18:33:43 18° ESE
MOS 1 Rocket 4.1 18:27:17 10° NNE 18:32:22 41° E 18:37:30 10° SSE
STARLINK-1138 3.8 18:29:03 10° WNW 18:33:12 70° NNE 18:36:31 15° E
Cosmos 1818 3.8 18:28:34 10° SW 18:34:01 78° NW 18:39:31 10° NE
STARLINK-1228 3.0 18:31:52 10° WNW 18:34:35 53° SSW 18:36:17 20° SE
CZ-4C R/B 4.0 18:31:08 10° NW 18:36:52 31° NNE 18:43:30 10° E
Cosmos 2341 Rocket 4.2 18:31:20 10° N 18:37:38 57° ENE 18:43:54 10° SSE
STARLINK-1143 3.7 18:34:01 10° WNW 18:38:10 72° NNE 18:41:18 17° E
FALCON 9 DEB 3.9 18:35:39 10° SSW 18:38:47 32° SE 18:40:54 17° E
ATLAS CENTAUR R/B 3.5 18:37:48 10° NNW 18:40:21 16° NNE 18:42:49 10° ENE
Cosmos 1892 4.3 18:37:54 10° NNE 18:40:47 19° ENE 18:42:05 17° E
Cosmos 2058 Rocket 3.1 18:36:45 10° S 18:41:12 64° E 18:45:40 10° NNE
ATLAS 5 CENTAUR R/B 1.6 18:37:38 10° SSW 18:41:41 53° SE 18:46:17 10° NE
STARLINK-1241 3.7 18:39:02 10° WNW 18:43:12 75° NNE 18:46:07 19° E
STARLINK-52 3.7 18:41:24 10° SSW 18:44:18 32° SE 18:45:37 23° E
Cosmos 1726 Rocket 3.8 18:42:11 10° SSW 18:46:36 77° WNW 18:51:05 10° N
Cosmos 1763 Rocket 4.4 18:43:19 10° N 18:48:00 32° NE 18:50:56 19° ESE
STARLINK-1239 3.7 18:43:59 10° WNW 18:48:09 78° NNE 18:50:52 21° ESE
Cosmos 2218 Rocket 4.4 18:44:28 10° N 18:50:25 45° ENE 18:54:52 18° SE
Aureole 1 Rocket 4.0 18:43:25 10° SSW 18:50:46 88° ESE 18:56:26 10° NNE
SJ-6B 3.9 18:47:22 10° S 18:51:22 48° W 18:55:24 10° NNW
STARLINK-1240 3.6 18:48:59 10° WNW 18:53:09 80° NNE 18:55:40 23° ESE
Cosmos 921 Rocket 3.0 18:49:32 10° NNW 18:53:43 78° WSW 18:57:17 14° SSE
H-2A R/B 3.4 18:50:37 10° SSW 18:55:26 39° W 19:00:11 10° NNW
USA 234 4.0 18:51:37 10° ENE 18:57:03 27° SE 19:02:27 10° S
Resurs 01 Rocket 1.6 18:54:19 16° SSE 18:57:49 73° ENE 19:02:14 10° N
Cosmos 1461 3.9 18:53:37 10° NW 18:57:58 47° WSW 19:01:46 14° SSE
STARLINK-1216 3.6 18:53:58 10° WNW 18:58:08 84° NNE 19:00:27 25° ESE
Cosmos 1174 4.4 18:54:50 10° NNW 18:58:43 52° NE 19:01:20 24° ESE
SeaSat 1 4.0 18:55:24 10° NNE 18:59:57 38° NW 19:04:29 10° WSW
Iridium 4 Rocket 3.8 18:57:08 10° NNE 19:00:53 31° ENE 19:02:07 26° ESE
Cosmos 2228 4.2 18:57:22 10° SSW 19:01:31 46° WNW 19:05:44 10° N
ATLAS 2AS CENTAUR R/B 3.6 18:54:24 10° NW 19:01:35 48° WSW 19:08:12 10° S
Nadezhda 1 Rocket 4.3 18:55:13 10° SSW 19:01:36 73° WNW 19:07:58 10° N
In-Cosmos 22 Rocket 4.5 18:56:12 10° N 19:01:57 54° ENE 19:05:45 21° SE
Cosmos 962 Rocket 4.4 18:55:47 10° N 19:01:59 87° E 19:08:07 10° S
STARLINK-1237 3.6 18:58:56 10° WNW 19:03:06 87° NNE 19:05:12 28° ESE
Cosmos 1300 2.7 19:00:26 13° S 19:03:45 60° E 19:07:32 10° NNE
CZ-2C R/B 4.5 18:59:54 10° SSW 19:04:18 34° W 19:08:37 10° NNW
SL-8 Rocket 4.0 18:58:38 10° N 19:04:57 65° ENE 19:09:51 17° SSE
STARLINK-1202 3.5 19:03:56 10° WNW 19:08:06 89° SSW 19:10:01 31° ESE
Cosmos 2181 Rocket 4.1 19:02:46 10° SSE 19:08:50 56° E 19:14:52 10° NNE
Cosmos 220 Rocket 4.0 19:05:27 10° NNW 19:09:46 66° ENE 19:11:51 30° SE
Cosmos 1812 Rocket 4.0 19:09:03 28° SE 19:10:36 39° E 19:14:39 10° NNE
SAR-Lupe-2 4.0 19:07:51 10° NNE 19:11:16 40° E 19:11:51 36° SE
Cosmos 1140 Rocket 3.5 19:07:33 10° SSW 19:12:44 84° WNW 19:17:56 10° NNE
BREEZE M DEB (TANK) 3.5 19:05:15 10° WSW 19:13:24 52° SSE 19:14:50 32° ESE
RESURS DK-1 3.5 19:10:49 10° NNW 19:14:32 31° NE 19:15:51 25° E
SL-4 R/B 1.5 19:11:51 10° W 19:15:16 80° NNW 19:16:52 30° ENE
MetOp-B 4.1 19:11:57 23° SSE 19:15:20 69° ENE 19:20:41 10° N
Cosmos 2058 3.0 19:12:25 10° N 19:16:28 53° ENE 19:17:52 35° SE
MINOTAUR IV R/B 4.4 19:12:14 10° SSW 19:16:41 75° ESE 19:21:13 10° NNE
STARLINK-1234 4.1 19:15:02 10° W 19:17:39 28° SW 19:18:03 27° SSW
STARLINK-1246 3.5 19:13:53 10° WNW 19:18:02 82° SSW 19:19:34 38° ESE
Cosmos 1340 Rocket 3.7 19:14:16 10° SSW 19:18:13 52° WNW 19:22:11 10° N
STARLINK-1209 4.2 19:15:41 10° W 19:18:15 26° SW 19:18:37 25° SSW
Cosmos 2366 rocket 4.0 19:12:19 10° N 19:18:26 65° ENE 19:22:16 24° SSE
Cosmos 2151 4.0 19:17:58 10° N 19:21:39 28° ENE 19:22:07 27° E
STARLINK-1233 3.8 19:18:55 10° WNW 19:21:50 36° SSW 19:22:13 34° SSW
STARLINK-1203 3.6 19:17:47 10° WNW 19:21:59 75° SSW 19:23:23 40° SE
Spot 2 Rocket 3.5 19:19:29 28° SE 19:22:11 68° ENE 19:27:16 10° N
STARLINK-1212 3.8 19:19:22 10° WNW 19:22:16 35° SW 19:22:37 34° SSW
STARLINK-1105 3.8 19:19:48 10° WNW 19:22:42 35° SW 19:23:04 34° SSW
Cosmos 1190 Rocket 4.5 19:17:44 10° SW 19:22:59 64° WNW 19:28:16 10° NNE
STARLINK-1224 3.5 19:18:53 10° WNW 19:23:02 78° SSW 19:24:21 42° SE
STARLINK-1206 3.8 19:20:18 10° W 19:23:11 35° SW 19:23:29 34° SSW
Cosmos 1850 Rocket 4.5 19:22:05 31° SE 19:23:27 37° ESE 19:28:12 10° NE
STARLINK-1247 3.8 19:20:45 10° W 19:23:38 34° SSW 19:23:55 33° SSW
Cosmos 1959 Rocket 4.5 19:17:30 10° N 19:23:51 73° ENE 19:27:49 24° SSE
STARLINK-1227 3.9 19:21:10 10° W 19:24:04 34° SW 19:24:22 33° SSW
STARLINK-1218 3.9 19:21:39 10° W 19:24:31 34° SW 19:24:47 33° SSW
STARLINK-1226 3.9 19:22:05 10° W 19:24:58 34° SW 19:25:13 33° SSW
STARLINK-1254 3.9 19:22:31 10° W 19:25:24 34° SW 19:25:40 33° SSW
STARLINK-1215 3.9 19:23:01 10° W 19:25:53 33° SW 19:26:06 33° SSW
Cosmos 841 Rocket 4.3 19:21:21 10° NNW 19:26:17 37° NE 19:28:06 29° E
STARLINK-1231 3.9 19:23:28 10° W 19:26:19 33° SW 19:26:31 32° SSW
ERBS 2.2 19:22:58 10° WNW 19:26:22 87° SSW 19:26:51 62° SE
COSMOS 2406 3.9 19:26:20 31° ESE 19:26:55 31° ESE 19:31:53 10° NE
STARLINK-1232 4.0 19:24:23 10° W 19:27:14 32° SW 19:27:24 32° SSW
STARLINK-1217 4.0 19:24:49 10° W 19:27:40 32° SW 19:27:49 32° SSW
STARLINK-1225 3.6 19:23:52 10° WNW 19:28:01 74° SSW 19:29:09 46° SE
STARLINK-1208 4.0 19:25:15 10° W 19:28:07 32° SW 19:28:17 32° SSW
STARLINK-1229 4.0 19:25:44 10° W 19:28:34 32° SW 19:28:41 32° SSW
STARLINK-1271 4.0 19:26:11 10° W 19:29:01 31° SW 19:29:07 31° SSW
STARLINK-1270 4.0 19:26:39 10° W 19:29:28 31° SW 19:29:33 31° SSW
STARLINK-1154 4.1 19:27:05 10° W 19:29:55 31° SW 19:29:59 31° SSW
STARLINK-1197 4.1 19:28:01 10° W 19:30:50 30° SW 19:30:52 30° SSW
STARLINK-1189 4.1 19:28:27 10° W 19:31:15 30° SW 19:31:17 30° SW
STARLINK-1198 4.1 19:28:56 10° W 19:31:44 30° SW 19:31:45 30° SW
STARLINK-1188 4.1 19:29:21 10° W 19:32:08 30° SW 19:32:08 30° SW
DMSP B5D2-2 4.4 19:26:57 10° N 19:32:08 67° WNW 19:37:19 10° SSW
Cosmos 1076 Rocket 3.4 19:28:28 10° N 19:32:47 81° E 19:34:16 40° SSE
STARLINK-1235 4.5 19:30:08 10° W 19:32:47 25° SW 19:32:51 25° SW
STARLINK-1230 3.6 19:28:51 10° WNW 19:32:58 70° SSW 19:33:55 50° SE
STARLINK-1187 4.3 19:30:30 10° W 19:33:15 27° SW 19:33:16 27° SW
STARLINK-1199 4.2 19:31:18 10° W 19:34:04 29° SW 19:34:04 29° SW
STARLINK-1191 4.2 19:31:46 10° W 19:34:30 29° SW 19:34:30 29° SW
STARLINK-1210 4.2 19:32:13 10° W 19:34:56 29° SW 19:34:56 29° SW
STARLINK-1221 4.3 19:32:42 10° W 19:35:23 29° SW 19:35:23 29° SW
STARLINK-1219 4.3 19:33:08 10° W 19:35:49 28° SW 19:35:49 28° SW
STARLINK-1222 4.3 19:33:36 10° W 19:36:15 28° SW 19:36:15 28° SW
STARLINK-1211 4.3 19:34:04 10° W 19:36:42 28° SW 19:36:42 28° SW
STARLINK-1214 4.3 19:34:30 10° W 19:37:06 28° SW 19:37:06 28° SW
Abrixas rocket 3.9 19:35:03 10° W 19:36:49 21° SW 19:36:49 21° SW
Cosmos 1408 3.2 19:34:10 10° N 19:37:26 39° ENE 19:37:26 39° ENE
STARLINK-1245 4.4 19:35:01 10° W 19:37:32 27° SW 19:37:32 27° SW
STARLINK-1243 3.7 19:33:49 10° WNW 19:37:56 66° SSW 19:38:42 53° SSE
STARLINK-1238 4.4 19:35:25 10° W 19:37:59 27° SW 19:37:59 27° SW
Cosmos 468 Rocket 3.9 19:32:58 10° NNW 19:38:11 85° ENE 19:40:10 39° SSE
STARLINK-1205 4.4 19:36:22 10° W 19:38:51 26° SW 19:38:51 26° SW
STARLINK-1204 4.4 19:36:50 10° W 19:39:16 26° SW 19:39:16 26° SW
STARLINK-29 3.1 19:36:37 10° WSW 19:39:26 66° SW 19:39:26 66° SW
CZ-2C R/B 2.9 19:36:17 10° N 19:41:26 65° WNW 19:46:34 10° SSW
STARLINK-1236 3.7 19:38:48 10° WNW 19:42:54 62° SSW 19:43:28 55° SSE
Cosmos 2369 4.2 19:38:05 10° NNW 19:43:32 47° NE 19:45:22 35° E
SPOT 5 3.1 19:43:20 40° E 19:43:48 42° ENE 19:47:53 10° N
STARLINK-60 3.3 19:41:35 10° W 19:44:51 63° NNW 19:45:10 59° NNE
Cosmos 1570 Rocket 4.2 19:41:09 10° NNW 19:46:29 61° ENE 19:48:00 44° ESE
Cosmos 1697 Rocket 3.1 19:41:04 10° NNW 19:46:36 50° NE 19:48:22 37° ESE
Terra 2.5 19:46:44 35° E 19:47:22 37° ENE 19:51:45 10° N
ERS-1 Rocket 3.1 19:47:11 45° ESE 19:48:27 60° ENE 19:53:25 10° N
Cosmos 489 Rocket 4.4 19:44:51 10° NNW 19:51:04 70° ENE 19:53:18 41° SE
Iridium 2 4.2 19:50:40 32° SSW 19:52:10 58° W 19:55:58 10° N
Meteor 2-1 Rocket 4.2 19:48:49 25° S 19:52:23 78° E 19:58:21 10° NNE
STARLINK-1269 3.8 19:48:46 10° WNW 19:52:50 55° SSW 19:53:02 54° SSW
Cosmos-2242 3.4 19:56:39 45° ENE 19:56:39 45° ENE 20:00:21 10° NNE
STARLINK-1200 3.9 19:53:45 10° WNW 19:57:47 52° SSW 19:57:48 52° SSW
Cosmos 1821 Rocket 4.2 19:53:09 10° N 19:59:28 57° ENE 20:01:17 43° SE
STARLINK-1192 4.1 19:58:45 10° WNW 20:02:36 48° SW 20:02:36 48° SW
SL-16 R/B 4.1 20:01:47 10° N 20:05:53 20° NE 20:08:21 15° ENE
SL-08 R/B 4.4 19:59:48 10° N 20:05:58 85° W 20:08:28 39° S
COSMOS 2455 4.3 20:01:02 10° NW 20:06:06 29° WSW 20:09:32 17° SSW
STARLINK-1244 4.3 20:03:45 10° WNW 20:07:23 44° SW 20:07:23 44° SW
Cosmos 1656 3.7 20:03:58 10° NNW 20:09:40 76° WSW 20:11:09 50° S
Cosmos 1356 Rocket 3.5 20:12:13 69° NE 20:12:13 69° NE 20:16:06 10° NNE
Cosmos 1455 2.8 20:13:23 49° NNE 20:13:23 49° NNE 20:16:18 10° NNE
STARLINK-1138 4.4 20:08:45 10° WNW 20:12:10 40° SW 20:12:10 40° SW
Cosmos 2322 Rocket 4.1 20:09:37 10° N 20:13:36 19° NE 20:16:00 15° ENE
IGS 5A 3.9 20:13:40 51° SW 20:14:10 55° W 20:18:16 10° NNW
Cosmos 1980 Rocket 2.6 20:10:52 10° NNW 20:16:18 47° NE 20:17:17 43° E
Cosmos 1892 3.7 20:12:59 10° NNW 20:16:41 42° W 20:17:05 40° WSW
ATLAS CENTAUR R/B 1.8 20:16:11 10° NW 20:19:27 52° N 20:19:27 52° N
Meteor 2-3 Rocket 4.0 20:14:41 10° N 20:20:18 52° ENE 20:20:53 50° E
Cosmos 1741 Rocket 4.0 20:18:18 35° SSW 20:20:39 84° WNW 20:26:02 10° NNE
Mayak 0.8 20:18:27 10° NE 20:19:48 17° NE 20:19:48 17° NE
SPOT 1/Viking Rocket 3.9 20:21:21 44° SSW 20:22:46 59° W 20:27:57 10° NNW
CARTOSAT-1 3.5 20:22:53 78° W 20:22:53 78° W 20:27:13 10° NNW
BREEZE M DEB (TANK) 3.6 20:19:16 10° WSW 20:23:27 72° SSE 20:38:04 10° ENE
Cosmos 1825 2.8 20:20:20 10° N 20:23:21 55° NNW 20:23:21 55° NNW
ATLAS 5 CENTAUR R/B 3.4 20:22:34 10° W 20:26:35 33° NNW 20:31:07 10° NE
CZ-4C R/B 3.0 20:19:41 10° NW 20:26:36 68° NE 20:29:18 43° ESE
Cosmos 2208 Rocket 3.9 20:22:24 10° NNW 20:27:37 79° WSW 20:28:09 70° SSW
Cosmos 1763 Rocket 4.2 20:25:03 10° NW 20:29:58 45° WSW 20:30:58 40° SW
Cosmos 2344 4.4 20:23:29 10° NW 20:32:32 70° NE 20:38:33 34° ESE
Okean 3 Rocket 3.8 20:29:17 10° NNW 20:33:36 65° W 20:33:36 65° W
Resurs 01 Rocket 4.2 20:32:22 10° WSW 20:34:50 15° W 20:37:18 10° NW
Cosmos 1766 Rocket 3.7 20:31:06 10° NNW 20:35:19 71° WNW 20:35:19 71° WNW
Cosmos 540 Rocket 3.4 20:31:30 10° NNW 20:36:41 76° WSW 20:36:54 74° SW
Cosmos 2360 4.0 20:34:53 10° NNW 20:40:37 84° ENE 20:41:02 77° SE
USA 234 3.1 20:34:10 10° ENE 20:40:44 78° SE 20:47:17 10° SW
Cosmos 1814 Rocket 4.0 20:37:01 10° NNW 20:42:22 71° WSW 20:42:40 69° SW
Cosmos 2278 3.5 20:39:44 10° NNW 20:45:27 86° ENE 20:45:43 81° SE
Cosmos 2082 Rocket 3.0 20:49:07 37° ENE 20:49:07 37° ENE 20:52:51 10° NE
RESURS DK-1 3.8 20:48:48 10° NW 20:51:45 32° W 20:51:45 32° W
SL-4 R/B 4.2 20:51:31 10° WNW 20:52:28 18° WNW 20:52:28 18° WNW
Cosmos 1833 Rocket 2.6 20:56:29 79° ENE 20:56:29 79° ENE 21:01:51 10° NNE
ASTEX 1 3.5 20:57:33 72° N 20:57:33 72° N 21:02:01 10° N
Cosmos 2151 4.4 20:55:12 10° NNW 20:58:42 31° W 20:58:42 31° W
Meteor 2-10 Rocket 4.2 20:58:37 44° WSW 20:59:46 53° WNW 21:05:07 10° N
Cosmos 841 Rocket 4.4 21:03:19 10° NW 21:08:12 39° WSW 21:08:12 39° WSW
COSMOS 2406 3.9 21:08:17 29° WSW 21:10:59 52° NW 21:16:36 10° NNE
Meteor 1-27 4.3 21:13:11 72° NE 21:13:11 72° NE 21:18:34 10° NNE
SPOT 5 4.5 21:22:33 23° W 21:22:33 23° W 21:25:35 10° NW
Terra 3.2 21:25:36 32° W 21:25:36 32° W 21:29:27 10° NNW
Cosmos 1697 Rocket 3.8 21:25:22 10° NW 21:30:07 33° W 21:30:07 33° W
Cosmos 2221 4.0 21:34:15 34° N 21:34:15 34° N 21:36:48 10° N
Cosmos 1727 Rocket 4.2 21:39:54 62° ENE 21:39:54 62° ENE 21:45:32 10° NNE
Cosmos 1153 Rocket 4.5 21:35:52 10° N 21:41:58 81° NNE 21:41:58 81° NNE
SL-16 R/B 2.5 21:45:19 10° NNW 21:50:12 62° N 21:50:12 62° N
Cosmos 1802 Rocket 4.4 21:45:03 10° N 21:50:41 50° ENE 21:50:41 50° ENE
Cosmos 2360 Rocket 3.1 21:47:45 10° NNW 21:53:00 40° NE 21:53:00 40° NE
Cosmos 2100 Rocket 4.1 21:48:43 10° N 21:54:26 66° NE 21:54:26 66° NE
Mayak 0.7 21:53:54 10° N 21:56:22 27° NNW 21:56:22 27° NNW
Cosmos 2322 Rocket 2.6 21:53:02 10° NNW 21:57:48 59° N 21:57:48 59° N
Cosmos 1980 Rocket 3.4 21:55:08 10° NW 21:59:03 32° W 21:59:03 32° W
Cosmos 2173 Rocket 4.1 21:56:16 10° N 22:01:44 66° NE 22:01:44 66° NE
Thor Agena Rocket 4.4 22:03:45 10° N 22:07:59 44° NW 22:07:59 44° NW
Cosmos 2333 Rocket 3.8 22:06:43 10° NNW 22:11:27 27° NE 22:12:45 24° ENE
ATLAS 5 CENTAUR R/B 4.5 22:09:17 10° NW 22:12:43 19° N 22:16:31 10° NE
ALOS 2 4.3 22:16:03 31° NNW 22:16:03 31° NNW 22:18:23 10° NNW
CZ-4C R/B 3.6 22:08:26 10° NW 22:14:28 40° WSW 22:14:28 40° WSW
USA 234 3.8 22:17:16 10° ENE 22:23:38 57° NNW 22:30:00 10° W
Cosmos 2082 Rocket 3.4 22:30:55 34° WNW 22:31:41 36° NW 22:36:55 10° NNE
BREEZE-M DEB (TANK) 4.3 22:28:04 10° W 22:49:01 84° N 22:54:14 10° E
Cosmos 2219 Rocket 3.1 22:45:34 10° NNW 22:50:51 40° NE 22:50:59 40° NE
Cosmos 2061 Rocket 4.4 22:56:05 10° NNW 23:01:24 57° WNW 23:01:24 57° WNW
Resurs 1-4 Rocket 4.1 23:09:53 10° NE 23:13:05 18° E 23:13:05 18° E
Cosmos 2322 4.2 23:07:51 10° NNW 23:12:24 57° NNW 23:12:24 57° NNW
COSMOS 2428 3.2 23:10:31 10° NNW 23:15:49 54° NE 23:15:49 54° NE
SL-16 R/B 3.5 23:17:35 35° E 23:19:03 40° ENE 23:24:47 10° N
Helios 1B rocket 4.5 23:15:24 10° NNE 23:17:15 26° N 23:17:15 26° N
Cosmos 2233 Rocket 4.1 23:18:05 10° NNW 23:23:39 69° NW 23:23:39 69° NW
SL-16 R/B 4.3 23:30:21 10° NW 23:32:03 16° WNW 23:32:03 16° WNW
Cosmos 2360 Rocket 3.6 23:31:50 10° NW 23:34:46 28° WNW 23:34:46 28° WNW
Cosmos 2322 Rocket 4.2 23:37:59 10° NW 23:39:36 16° WNW 23:39:36 16° WNW
Meteor 2-20 Rocket 4.5 23:43:29 78° NNW 23:43:29 78° NNW 23:49:16 10° N
CZ-2D R/B 3.4 23:38:20 10° NNE 23:43:03 32° E 23:43:03 32° E
SJ 16-02 2.9 23:52:41 32° NE 23:52:41 32° NE 23:55:14 10° NNE
Cosmos 1833 4.4 23:54:14 67° NNW 23:54:14 67° NNW 23:59:27 10° NNE
Cosmos 1898 Rocket 4.4 23:55:14 43° ENE 23:55:14 43° ENE 23:59:17 10° NNE
